Tracking 34151 objects as of 20-May-2026
HD Live streaming from Space Station
objects crossing your sky now

COSMOS 660

Track COSMOS 660 now!
10-day predictions
COSMOS 660 is classified as:


NORAD ID: 7337
Int'l Code: 1974-044A
Perigee: 370.9 km
Apogee: 980.3 km
Inclination: 82.9 °
Period: 98.1 minutes
Semi major axis: 7046 km
RCS: 2.9855 m2 (large)
Launch date: June 18, 1974
Source: Commonwealth of Independent States (former USSR) (CIS)
Launch site: PLESETSK MISSILE AND SPACE COMPLEX (PKMTR)
Your satellite tracking list
Your tracking list is empty




NASA's NSSDC Master Catalog

Two Line Element Set (TLE):
1  7337U 74044A   26140.47666709  .00006084  00000-0  24139-3 0  9997
2  7337  82.9352 293.1351 0432354  94.6219 270.4493 14.67687418637554
Source of the keplerian elements: AFSPC